Location: Newark
(48.1500°N, 2.9667°W)
Time: 01:12:50
(UTC+00:00)

A-11 Canister half - Pass Details

Date: 21 January 2020
Orbit: 1524 x 1684 km, 47.3° (Epoch: 26 February)

Event Time Altitude Azimuth Distance (km) Brightness Sun altitude
Rises 00:12:52 0° 287° (WNW) 4,771 - -61.8°
Reaches altitude 10° 00:15:57 10° 284° (WNW) 3,806 - -61.9°
Maximum altitude 00:25:27 61° 207° (SSW) 1,813 - -61.9°
Drops below altitude 10° 00:35:13 10° 131° (SE) 3,913 - -61.8°
Sets 00:38:27 0° 128° (SE) 4,912 - -61.7°
